Home > Weather > Barnaul > Past weeks

Flag for Russia Past Weather in Barnaul, Russia — Yesterday and Last 2 Weeks

Now
68 °F

Sunny.


Feels Like: 68 °F
Forecast: 42 / 60 °F
Wind: 8 mph from South

Location: Barnaul Airport

Current Time: Aug 30, 2016 at 12:17:19 PM

Latest Report: Aug 30, 2016 at 11:30 AM


Visibility: 10 mi

Pressure: 29.68 "Hg

Humidity: 49%

Dew Point: 48 °F

Location of BarnaulLocation

Past Weather in Barnaul — Graph

°F

Barnaul Temperature Yesterday

Maximum temperature yesterday: 70 °F (at 1:00 PM)
Minimum temperature yesterday: 57 °F (at 11:30 PM)
Average temperature yesterday: 64 °F

High & Low Weather Summary for the Past Weeks

 TemperatureHumidityPressure
High82 °F (Aug 28, 4:30 PM)100% (Aug 25, 5:30 AM)30.33 "Hg (Aug 25, 5:30 AM)
Low43 °F (Aug 21, 7:00 AM)28% (Aug 26, 5:00 PM)29.65 "Hg (Aug 29, 1:00 PM)
Average63 °F63%30.03 "Hg
* Reported Aug 15 11:00 AM — Aug 30 11:00 AM, Barnaul, Weather by CustomWeather, © 2016

Note: Actual official high and low records may vary slightly from our data, if they occured in-between our weather recording intervals... More about our weather records

Advertising

Barnaul Weather History for the Previous 24 Hours

Scroll right to see more
 ConditionsComfort  
Time TempWeatherWind HumidityBarometerVisibility
11:00 AM
Tue, Aug 30
66 °FSunny.10 mph49%29.71 "Hg10 mi
10:30 AM64 °FSunny.10 mph52%29.71 "Hg10 mi
10:00 AM63 °FSunny.8 mph59%29.71 "Hg10 mi
9:30 AM59 °FSunny.8 mph72%29.71 "Hg10 mi
9:00 AM57 °FSunny.10 mph72%29.71 "Hg10 mi
8:30 AM54 °FSunny.8 mph82%29.71 "Hg10 mi
8:00 AM54 °FClear.8 mph82%29.74 "HgN/A
7:30 AM54 °FClear.10 mph82%29.74 "HgN/A
7:00 AM52 °FClear.6 mph82%29.74 "HgN/A
6:30 AM52 °FClear.6 mph82%29.74 "HgN/A
6:00 AM52 °FClear.6 mph82%29.74 "HgN/A
5:30 AM52 °FClear.6 mph82%29.74 "HgN/A
5:00 AM52 °FClear.6 mph82%29.74 "Hg10 mi
4:30 AM54 °FClear.8 mph77%29.74 "Hg10 mi
4:00 AM55 °FClear.8 mph72%29.74 "Hg10 mi
3:30 AM55 °FClear.8 mph72%29.74 "Hg10 mi
3:00 AM55 °FClear.8 mph77%29.77 "Hg10 mi
2:30 AM54 °FClear.8 mph82%29.77 "Hg10 mi
2:00 AM55 °FClear.8 mph77%29.77 "Hg10 mi
1:30 AM55 °FClear.8 mph77%29.77 "Hg10 mi
1:00 AM55 °FClear.8 mph77%29.77 "Hg10 mi
12:30 AM55 °FClear.8 mph82%29.77 "Hg10 mi
12:00 AM57 °FClear.8 mph77%29.77 "Hg10 mi
11:30 PM
Mon, Aug 29
57 °FPassing clouds.6 mph82%29.77 "HgN/A
11:00 PM59 °FPassing clouds.6 mph77%29.77 "HgN/A
10:30 PM59 °FPassing clouds.6 mph77%29.77 "HgN/A
10:00 PM59 °FPassing clouds.6 mph77%29.77 "HgN/A
9:30 PM59 °FPassing clouds.6 mph77%29.77 "HgN/A
9:00 PM59 °FPassing clouds.6 mph82%29.77 "HgN/A
8:30 PM61 °FPassing clouds.6 mph77%29.77 "HgN/A
8:00 PM63 °FPassing clouds.8 mph68%29.74 "HgN/A
7:30 PM63 °FPassing clouds.10 mph68%29.74 "HgN/A
7:00 PM63 °FScattered clouds.13 mph73%29.74 "HgN/A
6:30 PM63 °FScattered clouds.10 mph73%29.74 "HgN/A
6:00 PM63 °FScattered clouds.22 mph68%29.71 "HgN/A
5:30 PM63 °FScattered clouds.20 mph77%29.71 "HgN/A
5:00 PM61 °FScattered clouds.15 mph88%29.71 "HgN/A
4:30 PM61 °FSprinkles. Partly sunny.13 mph88%29.71 "HgN/A
4:00 PM64 °FSprinkles. Broken clouds.22 mph68%29.68 "Hg6 mi
3:30 PM68 °FScattered clouds.17 mph53%29.68 "HgN/A
3:00 PM68 °FScattered clouds.20 mph53%29.68 "HgN/A
2:30 PM68 °FScattered clouds.20 mph53%29.68 "HgN/A
2:00 PM70 °FScattered clouds.24 mph50%29.68 "HgN/A
1:30 PM68 °FScattered clouds.20 mph56%29.65 "HgN/A
1:00 PM70 °FScattered clouds.15 mph57%29.65 "HgN/A
12:30 PM66 °FScattered clouds.13 mph64%29.68 "HgN/A
12:00 PM66 °FScattered clouds.15 mph64%29.68 "HgN/A
Weather by CustomWeather, © 2016

See weather overviewHow to use our weather pages